TimeEDT,TemperatureF,Dew PointF,Humidity,Sea Level PressureIn,VisibilityMPH,Wind Direction,Wind SpeedMPH,Gust SpeedMPH,PrecipitationIn,Events,Conditions,WindDirDegrees,DateUTC
12:51 AM,21.0,6.1,53,30.60,10.0,NW,17.3,25.3,N/A,,Partly Cloudy,320,2013-03-15 04:51:00
1:51 AM,21.0,6.1,53,30.61,10.0,NNW,17.3,-,N/A,,Partly Cloudy,330,2013-03-15 05:51:00
3:51 AM,20.1,3.0,48,30.61,10.0,NW,17.3,25.3,N/A,,Clear,320,2013-03-15 07:51:00
4:51 AM,19.0,1.0,46,30.61,10.0,NW,16.1,23.0,N/A,,Clear,310,2013-03-15 08:51:00
5:51 AM,19.0,1.0,46,30.62,10.0,NW,13.8,-,N/A,,Clear,320,2013-03-15 09:51:00
6:51 AM,19.0,2.1,48,30.63,10.0,NW,9.2,-,N/A,,Clear,310,2013-03-15 10:51:00
7:51 AM,20.1,3.0,48,30.63,10.0,NW,9.2,-,N/A,,Clear,320,2013-03-15 11:51:00
8:51 AM,22.1,4.1,46,30.63,10.0,NW,10.4,-,N/A,,Clear,310,2013-03-15 12:51:00
9:51 AM,24.1,5.0,44,30.63,10.0,NNW,12.7,-,N/A,,Clear,340,2013-03-15 13:51:00
10:51 AM,27.1,4.1,37,30.60,10.0,NW,9.2,-,N/A,,Clear,320,2013-03-15 14:51:00
11:51 AM,30.0,2.1,30,30.56,10.0,NW,9.2,17.3,N/A,,Clear,310,2013-03-15 15:51:00
12:51 PM,34.0,2.1,26,30.52,10.0,WSW,10.4,-,N/A,,Partly Cloudy,250,2013-03-15 16:51:00
1:51 PM,36.9,2.1,23,30.47,10.0,Variable,6.9,-,N/A,,Scattered Clouds,0,2013-03-15 17:51:00
2:51 PM,37.9,5.0,25,30.43,10.0,Variable,6.9,-,N/A,,Mostly Cloudy,0,2013-03-15 18:51:00
3:51 PM,39.9,12.0,32,30.41,10.0,WNW,8.1,-,N/A,,Scattered Clouds,290,2013-03-15 19:51:00
4:51 PM,38.8,15.1,38,30.38,10.0,WSW,8.1,19.6,N/A,,Scattered Clouds,250,2013-03-15 20:51:00
5:51 PM,36.9,19.0,49,30.39,10.0,SSE,4.6,16.1,N/A,,Scattered Clouds,160,2013-03-15 21:51:00
6:23 PM,37.4,21.2,52,29.63,10.0,West,5.8,17.3,N/A,,Mostly Cloudy,270,2013-03-15 22:23:00
6:51 PM,36.9,23.0,57,30.40,10.0,WNW,11.5,-,N/A,,Mostly Cloudy,290,2013-03-15 22:51:00
7:51 PM,34.9,26.1,70,30.40,10.0,Variable,6.9,-,N/A,,Scattered Clouds,0,2013-03-15 23:51:00
8:51 PM,34.0,26.1,73,30.40,10.0,Variable,3.5,-,N/A,,Partly Cloudy,0,2013-03-16 00:51:00
9:15 PM,33.8,28.4,81,29.64,4.0,West,5.8,-,N/A,,Haze,260,2013-03-16 01:15:00
9:51 PM,34.0,27.1,76,30.39,10.0,Calm,Calm,-,N/A,,Clear,0,2013-03-16 01:51:00
10:51 PM,32.9,25.2,73,30.40,10.0,West,5.8,-,N/A,,Clear,270,2013-03-16 02:51:00
11:51 PM,34.0,23.0,64,30.41,10.0,NW,13.8,21.9,N/A,,Clear,310,2013-03-16 03:51:00